Regional Weather Roundup
Issued by NWS

Home | Current Version | Previous Version | Text Only | Print | Product List | Glossary Off
Versions: 1 2 3 4 5 6 7 8 9 10 11 12 13 14 15 16 17 18 19 20 21 22 23 24 25 26 27 28 29 30 31 32 33 34 35 36 37 38 39 40 41 42 43 44 45 46 47 48 49 50

000
ASUS43 KTOP 280408
RWRKS

WEATHER ROUNDUP FOR KANSAS
NATIONAL WEATHER SERVICE GOODLAND KS
1100 PM CDT WED JUL 27 2016

NOTE:  "FAIR" INDICATES FEW OR NO CLOUDS BELOW 12,000 FEET WITH NO
SIGNIFICANT WEATHER AND/OR OBSTRUCTIONS TO VISIBILITY.

KSZ001>006-013>018-027>032-041>047-280500-
NORTHWEST KANSAS

CITY           SKY/WX    TMP DP  RH WIND       PRES   REMARKS
GOODLAND       MOCLDY    75  65  70 SE9       30.11R THUNDER
HAYS           CLEAR     77  64  65 NE8       30.03S
HILL CITY      CLEAR     77  67  71 NE10      30.06R
RUSSELL        CLEAR     76  68  76 E7        30.02R
$$

KSZ061>065-074>080-084>089-280500-
SOUTHWEST KANSAS

CITY           SKY/WX    TMP DP  RH WIND       PRES   REMARKS
DODGE CITY     CLEAR     74  71  91 E3        30.06R
ELKHART          N/A     68  61  78 SW5         N/A
GARDEN CITY    CLOUDY    74  68  81 SE3       30.06R
GREAT BEND     CLEAR     79  64  61 E6        30.02R
LIBERAL        CLOUDY    72  63  73 CALM      30.08S
PRATT          CLEAR     77  65  66 E3        30.03R
$$

KSZ066>073-081>083-090>101-280500-
SOUTHEAST KANSAS

CITY           SKY/WX    TMP DP  RH WIND       PRES   REMARKS
CHANUTE        CLOUDY    80  76  87 SE7       29.95R
COFFEYVILLE    PTCLDY    79  74  84 SE6       29.95R
HUTCHINSON     CLEAR     77  69  76 E3        30.00R
MEDICINE LODGE   N/A     81  65  58 E6        29.99R
NEWTON         CLEAR     80  73  79 E3        30.01R
PARSONS        CLEAR     79  75  87 VRB3      29.96R
WICHITA INTL   PTCLDY    83  71  67 E6        29.98R
WICHITA JABRA  CLEAR     79  73  82 CALM      29.99R
WICHITA MCCONL CLEAR     82  73  74 SE5       29.99R
WINFIELD       CLEAR     79  72  79 SE3       29.98R
$$

KSZ007>012-019>026-033>040-048>060-102>105-280500-
NORTHEAST KANSAS

CITY           SKY/WX    TMP DP  RH WIND       PRES   REMARKS
CONCORDIA      CLEAR     78  67  68 NE3       30.01R
EMPORIA        PTCLDY    77  74  90 CALM      29.98R
LAWRENCE       CLEAR     71  70  96 NW3       29.96R
MANHATTAN      CLEAR     76  72  87 CALM      29.98R
MARYSVILLE     CLOUDY    73  68  83 CALM      29.99F
OLATHE IND     CLEAR     78  72  81 NE5       29.97R
OLATHE EXE     CLEAR     79  70  74 NE5       29.97R
SALINA         CLEAR     84  71  65 NE6       30.00R
TOPEKA BILLARD   N/A     77  72  84 CALM      29.96R
TOPEKA FORBES  CLEAR     75  72  90 CALM      29.98R
$$



USA.gov is the U.S. government's official web portal to all federal, state and local government web resources and services.